Tracking 27402 objects as of 3-Jun-2023
HD Live streaming from Space Station
objects crossing your sky now

COSMOS 2499 DEB

Track COSMOS 2499 DEB now!
10-day predictions


NORAD ID: 49934
Int'l Code: 2014-028R
Perigee: 1,046.2 km
Apogee: 1,509.2 km
Inclination: 82.5 °
Period: 111.0 minutes
Semi major axis: 7648 km
RCS: Unknown
Launch date: May 23, 2014
Source: Commonwealth of Independent States (former USSR) (CIS)
Launch site: PLESETSK MISSILE AND SPACE COMPLEX (PKMTR)

Note: This is SATELLITE DEBRIS
Your satellite tracking list
Your tracking list is empty




NASA's NSSDC Master Catalog

Two Line Element Set (TLE):
1 49934U 14028R   23148.67054763 -.00008019  00000-0 -22317-1 0  9996
2 49934  82.5170 279.6009 0302692  70.2516 293.0971 12.97839310 62181
Source of the keplerian elements: AFSPC